| time (UTC) | temp F | wind direction | speed MPH | gust MPH | rain 1hr in | rain 24hr in | rain mn in | humidity % | barometer mb |
| 20260904065000 | 83 | 1 | 3.0 | 14.0 | 0.00 | 0.00 | 0.00 | 51 | 1014.3 |
| 20260904063505 | 82 | 37 | 2.0 | 14.0 | 0.00 | 0.00 | 0.00 | 53 | 1014.2 |
| 20260904062001 | 81 | 326 | 3.0 | 9.0 | 0.00 | 0.00 | 0.00 | 54 | 1014.0 |
| 20260904060503 | 81 | 18 | 2.0 | 5.0 | 0.00 | 0.00 | 0.00 | 54 | 1014.2 |
| 20260904055000 | 80 | 351 | 2.0 | 9.0 | 0.00 | 0.00 | 0.00 | 54 | 1014.3 |
| 20260904053502 | 80 | 330 | 1.0 | 5.0 | 0.00 | 0.00 | 0.00 | 56 | 1014.1 |
| 20260904052000 | 78 | 344 | 0.0 | 2.0 | 0.00 | 0.00 | 0.00 | 57 | 1013.9 |
| 20260904050503 | 77 | 18 | 0.0 | 0.0 | 0.00 | 0.00 | 0.00 | 59 | 1014.0 |
| 20260904045002 | 77 | 147 | 0.0 | 0.0 | 0.00 | 0.00 | 0.00 | 59 | 1014.0 |
| 20260904043504 | 77 | 59 | 0.0 | 0.0 | 0.00 | 0.00 | 0.00 | 59 | 1014.0 |
| 20260904042000 | 77 | 0 | 0.0 | 2.0 | 0.00 | 0.00 | 0.00 | 58 | 1014.0 |
| 20260904040502 | 77 | 324 | 0.0 | 3.0 | 0.00 | 0.00 | 0.00 | 55 | 1013.8 |
| 20260904035001 | 77 | 0 | 0.0 | 3.0 | 0.00 | 0.00 | 0.00 | 55 | 1013.8 |
| 20260904032001 | 77 | 10 | 0.0 | 0.0 | 0.00 | 0.00 | 0.00 | 54 | 1013.7 |
| 20260904025001 | 77 | 353 | 0.0 | 2.0 | 0.00 | 0.00 | 0.00 | 54 | 1013.6 |
| 20260904023505 | 77 | 0 | 0.0 | 1.0 | 0.00 | 0.00 | 0.00 | 52 | 1013.6 |
| 20260904022002 | 78 | 0 | 0.0 | 1.0 | 0.00 | 0.00 | 0.00 | 51 | 1013.6 |
| 20260904020503 | 78 | 321 | 0.0 | 1.0 | 0.00 | 0.00 | 0.00 | 50 | 1013.6 |
| 20260904013503 | 79 | 59 | 0.0 | 5.0 | 0.00 | 0.00 | 0.00 | 48 | 1013.6 |
| 20260904012003 | 79 | 0 | 2.0 | 6.0 | 0.00 | 0.00 | 0.00 | 48 | 1013.6 |
| 20260904005003 | 78 | 42 | 2.0 | 4.0 | 0.00 | 0.00 | 0.00 | 50 | 1013.3 |
| 20260904003503 | 79 | 21 | 0.0 | 4.0 | 0.00 | 0.00 | 0.00 | 48 | 1013.3 |
| 20260904000503 | 79 | 20 | 1.0 | 5.0 | 0.00 | 0.00 | 0.00 | 46 | 1013.5 |
| 20260903233504 | 80 | 340 | 1.0 | 3.0 | 0.00 | 0.00 | 0.00 | 44 | 1013.4 |
| 20260903232001 | 80 | 355 | 0.0 | 3.0 | 0.00 | 0.00 | 0.00 | 43 | 1013.4 |
| 20260903230506 | 80 | 104 | 0.0 | 3.0 | 0.00 | 0.00 | 0.00 | 42 | 1013.5 |
| 20260903225001 | 80 | 107 | 0.0 | 4.0 | 0.00 | 0.00 | 0.00 | 41 | 1013.5 |
| 20260903223505 | 81 | 7 | 1.0 | 4.0 | 0.00 | 0.00 | 0.00 | 41 | 1013.6 |
| 20260903222003 | 81 | 42 | 0.0 | 3.0 | 0.00 | 0.00 | 0.00 | 40 | 1013.6 |
| 20260903220503 | 81 | 38 | 0.0 | 2.0 | 0.00 | 0.00 | 0.00 | 40 | 1013.5 |
| 20260903213509 | 81 | 51 | 1.0 | 3.0 | 0.00 | 0.00 | 0.00 | 39 | 1013.5 |
| 20260903210507 | 81 | 3 | 0.0 | 3.0 | 0.00 | 0.00 | 0.00 | 38 | 1013.4 |
| 20260903205007 | 82 | 138 | 0.0 | 2.0 | 0.00 | 0.00 | 0.00 | 38 | 1013.5 |
| 20260903203502 | 82 | 48 | 1.0 | 4.0 | 0.00 | 0.00 | 0.00 | 37 | 1013.4 |
| 20260903194959 | 83 | 10 | 4.0 | 9.0 | 0.00 | 0.00 | 0.00 | 36 | 1013.6 |
| 20260903193501 | 83 | 65 | 4.0 | 11.0 | 0.00 | 0.00 | 0.00 | 37 | 1013.5 |
| 20260903192000 | 83 | 351 | 4.0 | 11.0 | 0.00 | 0.00 | 0.00 | 37 | 1013.4 |
| 20260903190501 | 83 | 6 | 3.0 | 9.0 | 0.00 | 0.00 | 0.00 | 38 | 1013.2 |
| 20260903183501 | 84 | 343 | 1.0 | 6.0 | 0.00 | 0.00 | 0.00 | 38 | 1013.0 |
| 20260903181956 | 84 | 32 | 1.0 | 5.0 | 0.00 | 0.00 | 0.00 | 38 | 1012.8 |
| 20260903180500 | 84 | 23 | 0.0 | 5.0 | 0.00 | 0.00 | 0.00 | 38 | 1012.8 |
| 20260903174958 | 84 | 275 | 1.0 | 10.0 | 0.00 | 0.00 | 0.00 | 39 | 1012.8 |
| 20260903173501 | 84 | 149 | 2.0 | 6.0 | 0.00 | 0.00 | 0.00 | 39 | 1012.6 |
| 20260903164955 | 85 | 35 | 2.0 | 9.0 | 0.00 | 0.00 | 0.00 | 40 | 1012.4 |
| 20260903163459 | 86 | 183 | 4.0 | 9.0 | 0.00 | 0.00 | 0.00 | 39 | 1012.4 |
| 20260903161957 | 86 | 7 | 5.0 | 11.0 | 0.00 | 0.00 | 0.00 | 38 | 1012.2 |
| 20260903160455 | 87 | 341 | 4.0 | 11.0 | 0.00 | 0.00 | 0.00 | 38 | 1012.1 |
| 20260903153453 | 87 | 35 | 4.0 | 14.0 | 0.00 | 0.00 | 0.00 | 39 | 1012.0 |
| 20260903150453 | 88 | 63 | 4.0 | 14.0 | 0.00 | 0.00 | 0.00 | 40 | 1012.0 |
| 20260903144950 | 88 | 11 | 6.0 | 14.0 | 0.00 | 0.00 | 0.00 | 40 | 1012.2 |
| 20260903141948 | 89 | 0 | 6.0 | 14.0 | 0.00 | 0.00 | 0.00 | 36 | 1012.0 |
| 20260903140442 | 90 | 341 | 10.0 | 19.0 | 0.00 | 0.00 | 0.00 | 37 | 1012.0 |
| 20260903133447 | 91 | 0 | 7.0 | 14.0 | 0.00 | 0.00 | 0.00 | 38 | 1011.7 |
| 20260903131942 | 91 | 0 | 7.0 | 15.0 | 0.00 | 0.00 | 0.00 | 38 | 1011.8 |
| 20260903130442 | 91 | 327 | 3.0 | 14.0 | 0.00 | 0.00 | 0.00 | 38 | 1012.0 |
| 20260903124936 | 91 | 13 | 6.0 | 13.0 | 0.00 | 0.00 | 0.00 | 38 | 1012.0 |
| 20260903123435 | 91 | 0 | 8.0 | 15.0 | 0.00 | 0.00 | 0.00 | 39 | 1012.1 |
| 20260903121933 | 91 | 0 | 7.0 | 14.0 | 0.00 | 0.00 | 0.00 | 39 | 1012.1 |
| 20260903114930 | 91 | 355 | 6.0 | 18.0 | 0.00 | 0.00 | 0.00 | 39 | 1012.5 |
| 20260903113432 | 91 | 17 | 6.0 | 16.0 | 0.00 | 0.00 | 0.00 | 39 | 1012.5 |
| 20260903111930 | 90 | 344 | 5.0 | 16.0 | 0.00 | 0.00 | 0.00 | 39 | 1012.6 |
| 20260903110429 | 91 | 55 | 4.0 | 13.0 | 0.00 | 0.00 | 0.00 | 39 | 1012.6 |
| 20260903104929 | 90 | 79 | 6.0 | 13.0 | 0.00 | 0.00 | 0.00 | 39 | 1012.7 |
| 20260903103431 | 90 | 336 | 3.0 | 13.0 | 0.00 | 0.00 | 0.00 | 40 | 1012.6 |
| 20260903101930 | 90 | 20 | 6.0 | 14.0 | 0.00 | 0.00 | 0.00 | 40 | 1012.8 |
| 20260903100428 | 91 | 110 | 5.0 | 14.0 | 0.00 | 0.00 | 0.00 | 38 | 1012.8 |
| 20260903094929 | 90 | 314 | 4.0 | 15.0 | 0.00 | 0.00 | 0.00 | 38 | 1012.9 |
| 20260903093429 | 90 | 11 | 1.0 | 16.0 | 0.00 | 0.00 | 0.00 | 38 | 1013.0 |
| 20260903091928 | 90 | 337 | 5.0 | 16.0 | 0.00 | 0.00 | 0.00 | 41 | 1013.3 |
| 20260903090428 | 89 | 68 | 6.0 | 14.0 | 0.00 | 0.00 | 0.00 | 40 | 1013.3 |
| 20260903084931 | 89 | 28 | 4.0 | 16.0 | 0.00 | 0.00 | 0.00 | 40 | 1013.4 |
| 20260903083429 | 88 | 37 | 6.0 | 11.0 | 0.00 | 0.00 | 0.00 | 41 | 1013.5 |
| 20260903081929 | 87 | 317 | 10.0 | 15.0 | 0.00 | 0.00 | 0.00 | 41 | 1013.7 |
| 20260903080429 | 87 | 0 | 5.0 | 11.0 | 0.00 | 0.00 | 0.00 | 43 | 1013.4 |
| 20260903074936 | 86 | 348 | 7.0 | 15.0 | 0.00 | 0.00 | 0.00 | 45 | 1013.6 |
| 20260903071929 | 85 | 350 | 4.0 | 14.0 | 0.00 | 0.00 | 0.00 | 47 | 1013.5 |
| 20260903070429 | 84 | 1 | 8.0 | 13.0 | 0.00 | 0.00 | 0.00 | 46 | 1013.6 |